| time (UTC) | temp F | wind direction | speed MPH | gust MPH | rain 1hr in | rain 24hr in | rain mn in | humidity % | barometer mb |
| 20260507020054 | 58 | 0 | 0.0 | 0.0 | 0.00 | 0.29 | 0.29 | 98 | 1005.8 |
| 20260507014553 | 58 | 0 | 0.0 | 1.0 | 0.00 | 0.29 | 0.29 | 98 | 1006.0 |
| 20260507013052 | 58 | 0 | 0.0 | 1.0 | 0.00 | 0.29 | 0.29 | 98 | 1005.8 |
| 20260507011554 | 58 | 0 | 0.0 | 1.0 | 0.00 | 0.29 | 0.29 | 98 | 1005.9 |
| 20260507010109 | 58 | 0 | 0.0 | 1.0 | 0.00 | 0.29 | 0.29 | 98 | 1005.8 |
| 20260507004554 | 58 | 0 | 0.0 | 0.0 | 0.00 | 0.29 | 0.29 | 97 | 1005.9 |
| 20260507003052 | 58 | 0 | 0.0 | 1.0 | 0.00 | 0.29 | 0.29 | 97 | 1005.8 |
| 20260507001557 | 58 | 0 | 0.0 | 1.0 | 0.00 | 0.29 | 0.29 | 97 | 1005.6 |
| 20260507000056 | 58 | 0 | 0.0 | 2.0 | 0.00 | 0.29 | 0.29 | 97 | 1005.6 |
| 20260506234602 | 58 | 0 | 0.0 | 2.0 | 0.03 | 0.29 | 0.29 | 97 | 1005.6 |
| 20260506233103 | 58 | 0 | 0.0 | 1.0 | 0.05 | 0.29 | 0.29 | 97 | 1005.5 |
| 20260506231554 | 58 | 0 | 0.0 | 0.0 | 0.06 | 0.29 | 0.29 | 97 | 1005.3 |
| 20260506230054 | 58 | 0 | 0.0 | 5.0 | 0.06 | 0.29 | 0.29 | 97 | 1005.4 |
| 20260506224556 | 58 | 202 | 0.0 | 2.0 | 0.04 | 0.26 | 0.26 | 97 | 1005.6 |
| 20260506223058 | 59 | 0 | 0.0 | 2.0 | 0.04 | 0.24 | 0.24 | 96 | 1005.7 |
| 20260506221553 | 59 | 0 | 0.0 | 7.0 | 0.04 | 0.23 | 0.23 | 96 | 1005.8 |
| 20260506220053 | 59 | 122 | 0.0 | 3.0 | 0.05 | 0.23 | 0.23 | 96 | 1005.9 |
| 20260506214556 | 59 | 0 | 1.0 | 5.0 | 0.05 | 0.22 | 0.22 | 96 | 1005.8 |
| 20260506213057 | 59 | 200 | 0.0 | 2.0 | 0.05 | 0.20 | 0.20 | 96 | 1005.8 |
| 20260506211557 | 59 | 0 | 0.0 | 4.0 | 0.06 | 0.19 | 0.19 | 96 | 1005.8 |
| 20260506210053 | 60 | 197 | 0.0 | 2.0 | 0.07 | 0.18 | 0.18 | 96 | 1006.2 |
| 20260506204554 | 60 | 0 | 0.0 | 4.0 | 0.07 | 0.17 | 0.17 | 95 | 1006.4 |
| 20260506203054 | 60 | 174 | 0.0 | 3.0 | 0.05 | 0.15 | 0.15 | 95 | 1006.6 |
| 20260506201552 | 60 | 0 | 0.0 | 4.0 | 0.03 | 0.13 | 0.13 | 94 | 1006.6 |
| 20260506200057 | 61 | 0 | 0.0 | 5.0 | 0.01 | 0.11 | 0.11 | 93 | 1006.5 |
| 20260506194553 | 61 | 212 | 0.0 | 3.0 | 0.01 | 0.10 | 0.10 | 93 | 1006.7 |
| 20260506193052 | 61 | 260 | 0.0 | 8.0 | 0.03 | 0.10 | 0.10 | 94 | 1006.7 |
| 20260506191554 | 61 | 0 | 0.0 | 1.0 | 0.05 | 0.10 | 0.10 | 94 | 1006.7 |
| 20260506190054 | 61 | 0 | 0.0 | 1.0 | 0.07 | 0.10 | 0.10 | 94 | 1006.5 |
| 20260506184554 | 62 | 230 | 0.0 | 1.0 | 0.09 | 0.09 | 0.09 | 93 | 1006.8 |
| 20260506183057 | 62 | 0 | 0.0 | 3.0 | 0.07 | 0.07 | 0.07 | 93 | 1006.8 |
| 20260506181551 | 63 | 0 | 0.0 | 1.0 | 0.05 | 0.05 | 0.05 | 91 | 1007.1 |
| 20260506180057 | 65 | 73 | 0.0 | 1.0 | 0.03 | 0.03 | 0.03 | 85 | 1007.2 |
| 20260506174711 | 68 | 0 | 0.0 | 2.0 | 0.00 | 0.00 | 0.00 | 72 | 1007.1 |
| 20260506173122 | 69 | 248 | 0.0 | 3.0 | 0.00 | 0.00 | 0.00 | 67 | 1007.0 |
| 20260506171556 | 71 | 193 | 1.0 | 3.0 | 0.00 | 0.00 | 0.00 | 64 | 1007.0 |
| 20260506170058 | 73 | 195 | 0.0 | 5.0 | 0.00 | 0.00 | 0.00 | 65 | 1007.0 |
| 20260506164552 | 73 | 204 | 1.0 | 4.0 | 0.00 | 0.00 | 0.00 | 65 | 1007.1 |
| 20260506163055 | 71 | 241 | 1.0 | 4.0 | 0.00 | 0.00 | 0.00 | 65 | 1007.2 |
| 20260506161603 | 71 | 240 | 1.0 | 5.0 | 0.00 | 0.00 | 0.00 | 68 | 1007.6 |
| 20260506160052 | 70 | 0 | 0.0 | 4.0 | 0.00 | 0.00 | 0.00 | 68 | 1008.0 |
| 20260506154600 | 70 | 236 | 1.0 | 3.0 | 0.00 | 0.00 | 0.00 | 69 | 1008.3 |
| 20260506153054 | 69 | 0 | 0.0 | 3.0 | 0.00 | 0.00 | 0.00 | 71 | 1008.4 |
| 20260506151612 | 69 | 200 | 1.0 | 3.0 | 0.00 | 0.00 | 0.00 | 71 | 1008.5 |
| 20260506150109 | 69 | 210 | 1.0 | 3.0 | 0.00 | 0.00 | 0.00 | 70 | 1008.7 |
| 20260506144614 | 69 | 188 | 0.0 | 4.0 | 0.00 | 0.00 | 0.00 | 72 | 1008.7 |
| 20260506143117 | 68 | 210 | 0.0 | 3.0 | 0.00 | 0.00 | 0.00 | 71 | 1008.8 |
| 20260506141608 | 68 | 0 | 1.0 | 4.0 | 0.00 | 0.00 | 0.00 | 73 | 1008.6 |
| 20260506140122 | 68 | 145 | 0.0 | 3.0 | 0.00 | 0.00 | 0.00 | 74 | 1008.4 |
| 20260506134559 | 67 | 280 | 0.0 | 5.0 | 0.00 | 0.00 | 0.00 | 75 | 1008.5 |
| 20260506133128 | 66 | 205 | 0.0 | 4.0 | 0.00 | 0.00 | 0.00 | 76 | 1008.7 |
| 20260506131600 | 66 | 221 | 0.0 | 2.0 | 0.00 | 0.00 | 0.00 | 76 | 1008.9 |
| 20260506130136 | 65 | 0 | 0.0 | 3.0 | 0.00 | 0.00 | 0.00 | 78 | 1009.2 |
| 20260506124557 | 65 | 214 | 1.0 | 7.0 | 0.00 | 0.00 | 0.00 | 77 | 1009.1 |
| 20260506123055 | 65 | 195 | 0.0 | 4.0 | 0.00 | 0.00 | 0.00 | 77 | 1009.0 |
| 20260506121556 | 63 | 0 | 0.0 | 1.0 | 0.00 | 0.00 | 0.00 | 80 | 1009.0 |
| 20260506120055 | 62 | 53 | 0.0 | 5.0 | 0.00 | 0.00 | 0.00 | 80 | 1009.3 |
| 20260506114554 | 61 | 0 | 0.0 | 3.0 | 0.00 | 0.00 | 0.00 | 83 | 1009.4 |
| 20260506113054 | 60 | 0 | 0.0 | 5.0 | 0.00 | 0.00 | 0.00 | 84 | 1009.5 |
| 20260506111553 | 60 | 198 | 0.0 | 2.0 | 0.00 | 0.00 | 0.00 | 84 | 1009.6 |
| 20260506110053 | 60 | 137 | 1.0 | 5.0 | 0.00 | 0.00 | 0.00 | 84 | 1009.5 |
| 20260506104559 | 59 | 336 | 0.0 | 1.0 | 0.00 | 0.00 | 0.00 | 86 | 1009.7 |
| 20260506103054 | 58 | 0 | 0.0 | 4.0 | 0.00 | 0.00 | 0.00 | 87 | 1009.6 |
| 20260506101553 | 57 | 191 | 0.0 | 3.0 | 0.00 | 0.00 | 0.00 | 87 | 1009.5 |
| 20260506100107 | 57 | 0 | 0.0 | 1.0 | 0.00 | 0.00 | 0.00 | 87 | 1009.6 |
| 20260506094602 | 57 | 99 | 0.0 | 4.0 | 0.00 | 0.00 | 0.00 | 87 | 1009.3 |
| 20260506093055 | 57 | 0 | 0.0 | 1.0 | 0.00 | 0.00 | 0.00 | 87 | 1009.3 |
| 20260506091551 | 56 | 134 | 0.0 | 1.0 | 0.00 | 0.00 | 0.00 | 87 | 1009.4 |
| 20260506084554 | 56 | 256 | 0.0 | 5.0 | 0.00 | 0.00 | 0.00 | 87 | 1009.2 |
| 20260506083058 | 56 | 0 | 0.0 | 1.0 | 0.00 | 0.00 | 0.00 | 87 | 1009.3 |
| 20260506081605 | 56 | 0 | 0.0 | 3.0 | 0.00 | 0.00 | 0.00 | 87 | 1009.3 |
| 20260506073053 | 56 | 0 | 0.0 | 1.0 | 0.00 | 0.00 | 0.00 | 86 | 1009.3 |
| 20260506071558 | 56 | 0 | 0.0 | 0.0 | 0.00 | 0.00 | 0.00 | 86 | 1009.2 |
| 20260506061553 | 57 | 0 | 0.0 | 0.0 | 0.00 | 0.00 | 0.00 | 81 | 1009.1 |
| 20260506044555 | 60 | 0 | 0.0 | 4.0 | 0.00 | 0.00 | 0.00 | 75 | 1009.4 |
| 20260506043111 | 60 | 0 | 0.0 | 2.0 | 0.00 | 0.00 | 0.00 | 74 | 1009.4 |
| 20260506041558 | 60 | 157 | 0.0 | 3.0 | 0.00 | 0.00 | 0.00 | 75 | 1009.4 |
| 20260506040056 | 60 | 0 | 0.0 | 0.0 | 0.00 | 0.00 | 0.00 | 75 | 1009.4 |
| 20260506034612 | 60 | 0 | 0.0 | 1.0 | 0.00 | 0.00 | 0.00 | 74 | 1009.4 |
| 20260506033054 | 60 | 0 | 0.0 | 2.0 | 0.00 | 0.00 | 0.00 | 74 | 1009.4 |
| 20260506031604 | 61 | 0 | 0.0 | 1.0 | 0.00 | 0.00 | 0.00 | 72 | 1009.4 |
| 20260506030100 | 60 | 0 | 0.0 | 1.0 | 0.00 | 0.00 | 0.00 | 74 | 1009.3 |
| 20260506024556 | 60 | 0 | 0.0 | 0.0 | 0.00 | 0.00 | 0.00 | 74 | 1009.4 |
| 20260506023101 | 61 | 0 | 0.0 | 1.0 | 0.00 | 0.00 | 0.00 | 73 | 1009.3 |
| 20260506021553 | 61 | 0 | 0.0 | 0.0 | 0.00 | 0.00 | 0.00 | 73 | 1009.3 |